Regional Weather Roundup
Issued by NWS Raleigh/Durham, NC

Home | Current Version | Previous Version | Text Only | Print | Product List | Glossary On
Versions: 1 2 3 4 5 6 7 8 9 10 11 12 13 14 15 16 17 18 19 20 21 22 23 24 25 26 27 28 29 30 31 32 33 34 35 36 37 38 39 40 41 42 43 44 45 46 47 48 49 50
000
ASUS42 KRAH 051910
RWRRAH
NORTH CAROLINA WEATHER ROUNDUP
NATIONAL WEATHER SERVICE RALEIGH NC
300 PM EDT TUE MAY 05 2015

NOTE: "FAIR" INDICATES FEW OR NO CLOUDS BELOW 12,000 FEET WITH NO
SIGNIFICANT WEATHER AND/OR OBSTRUCTIONS TO VISIBILITY.

NCZ001-053-055-056-065-067-052000-
WESTERN NORTH CAROLINA

CITY           SKY/WX    TMP DP  RH WIND       PRES   REMARKS
ASHEVILLE      CLOUDY    77  48  35 VRB7      30.32F
JEFFERSON      MOSUNNY   73  37  27 CALM      30.34F
MORGANTON      MOSUNNY   83  48  29 SE10      30.32F
HICKORY        SUNNY     81  54  39 VRB6      30.28F
RUTHERFORDTON  MOSUNNY   80  55  42 SE8       30.29F
MOUNT AIRY     SUNNY     83  49  30 SE3       30.28F
BOONE          PTSUNNY   75  46  35 S10G16    30.35F
$$

NCZ021-022-025-041-071-084-088-052000-
CENTRAL NORTH CAROLINA

CITY           SKY/WX    TMP DP  RH WIND       PRES   REMARKS
CHARLOTTE      MOSUNNY   81  53  37 CALM      30.29F
GREENSBORO     MOSUNNY   81  56  42 SW7       30.27F
WINSTON-SALEM  SUNNY     81  56  42 VRB6      30.28F
RALEIGH-DURHAM MOSUNNY   81  59  47 SW8       30.28F
FORT BRAGG     SUNNY     80  53  38 SW5       30.28F
FAYETTEVILLE   SUNNY     82  52  35 SE7       30.29F
BURLINGTON     SUNNY     81  58  45 VRB7      30.27F
LAURINBURG     SUNNY     81  51  35 VRB5      30.30F
$$

NCZ011-015-027-028-043-044-047-080-103-052000-
NORTHEASTERN NORTH CAROLINA

CITY           SKY/WX    TMP DP  RH WIND       PRES   REMARKS
ROCKY MT-WILSO SUNNY     81  54  39 VRB7      30.29F
GREENVILLE     SUNNY     81  54  39 SW9       30.30F
WASHINGTON     MOSUNNY   80  51  36 SE8       30.30F
ELIZABETH CITY SUNNY     80  52  37 SW14      30.29F
MANTEO         SUNNY     75  51  42 S16       30.32F
CAPE HATTERAS  SUNNY     73  56  54 S8        30.35F
$$

NCZ078-087-090-091-093-098-101-052000-
SOUTHEASTERN NORTH CAROLINA

CITY           SKY/WX    TMP DP  RH WIND       PRES   REMARKS
LUMBERTON      SUNNY     82  53  36 SE10      30.29F
GOLDSBORO      MOSUNNY   80  52  37 VRB2      30.27F
KINSTON        SUNNY     82  50  32 S10       30.30F
KENANSVILLE    SUNNY     79  48  33 S5        30.31F
NEW BERN       MOSUNNY   81  48  31 SE10      30.32F
CHERRY POINT   MOSUNNY   79  48  33 SE14      30.34F
BEAUFORT       SUNNY     76  54  46 SE13      30.34F
JACKSONVILLE   SUNNY     78  48  34 SE9       30.33F
WILMINGTON     SUNNY     75  53  46 E10G16    30.33F
$$



USA.gov is the U.S. government's official web portal to all federal, state and local government web resources and services.